Terminal Aerodrome Forecast
Issued by NWS

Home | Current Version | Previous Version | Graphics & Text | Print | Product List | Glossary On
Versions: 1 2 3 4 5 6 7 8 9 10 11 12 13 14 15
169
FTUS43 KMPX 202339
TAFRWF
TAF
KRWF 202339Z 2100/2124 28012G20KT P6SM BKN020
     FM210300 29011KT P6SM SCT060
     FM210800 24005KT 4SM BR FEW010 SCT050
      TEMPO 2109/2113 2SM BR BKN010
     FM211400 19009KT P6SM SCT250
     FM212000 22012KT P6SM SCT250=

USA.gov is the U.S. government's official web portal to all federal, state and local government web resources and services.